Regional Weather Roundup
Issued by NWS

Home | Current Version | Previous Version | Graphics & Text | Print | Product List | Glossary On
Versions: 1 2 3 4 5 6 7 8 9 10 11 12 13 14 15 16 17 18 19 20 21 22 23 24 25 26 27 28 29 30 31 32 33 34 35 36 37 38 39 40 41 42 43 44 45 46 47 48 49 50
000
ASUS43 KMPX 172101
RWRMN
WEATHER ROUNDUP FOR MINNESOTA
NATIONAL WEATHER SERVICE TWIN CITIES/CHANHASSEN MN
400 PM CDT FRI APR 17 2015


NOTE: "FAIR" INDICATES FEW OR NO CLOUDS BELOW 12,000 FEET WITH NO
SIGNIFICANT WEATHER AND/OR OBSTRUCTIONS TO VISIBILITY. N/A MEANS
CURRENT SKY AND/OR WEATHER CONDITIONS ARE NOT AVAILABLE.

MNZ060>063-068>070-172200-
   Twin Cities Metro

CITY           SKY/WX    TMP DP  RH WIND       PRES   REMARKS
TWIN CITIES    MOSUNNY   74  37  26 VRB3      30.02F
ST PAUL        SUNNY     74  35  24 VRB6      30.02F
CRYSTAL        SUNNY     74  32  21 NW5       30.02F
BLAINE         SUNNY     75  34  22 W7        30.02F
LAKEVILLE      SUNNY     72  43  35 NW7       30.02F
EDEN PRAIRIE   SUNNY     74  37  26 NW8       30.02F
SOUTH ST PAUL  SUNNY     74  39  28 W7        30.02F
LAKE ELMO      FAIR      72  37  28 NW3       30.03F
$$
MNZ001>005-007-008-013>017-022>024-027-028-172200-
   Northwest Minnesota

CITY           SKY/WX    TMP DP  RH WIND       PRES   REMARKS
BEMIDJI        SUNNY     71  24  17 W18       30.01F
HALLOCK        SUNNY     70  19  14 N23G33    30.03R
ROSEAU         SUNNY     68  25  19 NW20G28   29.99R
WARROAD        SUNNY     70  32  24 NW22G35   29.98R
THIEF RVR FALL SUNNY     73  25  16 W20G29    29.99F
CROOKSTON      SUNNY     75  25  15 NW16G30   30.00F
FOSSTON        SUNNY     73  19  13 W16G26    30.02F
DETROIT LAKES  SUNNY     72  19  14 NW17G24   30.05F
MOORHEAD       SUNNY     73  16  11 W10G21    30.04F
PARK RAPIDS    SUNNY     73  18  12 W17       30.03S
MAHNOMEN       FAIR      72  19  13 W17       30.03F
$$
MNZ006-009>011-018-025>026-172200-
   North Central Minnesota

CITY           SKY/WX    TMP DP  RH WIND       PRES   REMARKS
BAUDETTE       SUNNY     69  29  22 NW29G38   29.94F
FLAG ISLAND    SUNNY     54  28  37 NW26G32   29.96R
INTL FALLS     SUNNY     69  25  19 W15G38    29.92F
WASKISH        SUNNY     66  30  26 SW15G21   29.97F
BIG FORK       SUNNY     72  23  16 W13G24    29.98F
LONGVILLE      SUNNY     72  19  14 NW9       30.01F
GRAND RAPIDS   SUNNY     70  23  17 SW13G21   30.00F
ORR            SUNNY     70  16  12 W10G28    29.93F
COOK           SUNNY     70  21  16 SW17      29.96F
WALKER         FAIR      70  21  15 NW9       30.01F
$$
MNZ012-019>021-037-172200-
   Northeast Minnesota

CITY           SKY/WX    TMP DP  RH WIND       PRES   REMARKS
DULUTH         SUNNY     71  24  17 NW10G24   29.98F
ELY            SUNNY     68  18  14 W18G26    29.95S
HIBBING        SUNNY     71  19  14 W13G24    29.98F
EVELETH        SUNNY     70  23  17 W13G23    29.98F
DULUTH HARBOR  SUNNY     52  37  58 CALM      29.97F
TWO HARBORS    SUNNY     75  37  25 W12G21    29.94F
SILVER BAY     SUNNY     66  28  24 SE10      29.93F
GRAND MARAIS     N/A     47  35  63 SW8       29.96F
G MARAIS ARPRT SUNNY     61  23  23 S8G16     29.96F
$$
MNZ029>031-032-039>041-046>048-054>057-064-172200-
   West Central Minnesota

CITY           SKY/WX    TMP DP  RH WIND       PRES   REMARKS
FERGUS FALLS   SUNNY     72  10   9 W8        30.05F
WHEATON        SUNNY     70  25  18 W9        30.08F
MORRIS         SUNNY     73  19  13 NW6       30.05F
ALEXANDRIA     SUNNY     70  19  14 NW12G17   30.07F
ELBOW LAKE     FAIR      71  22  16 NW10G16   30.06F
WADENA           N/A     70  28  21 W13G18    30.05F
GLENWOOD       SUNNY     72  18  13 W9G16     30.07F
APPLETON       SUNNY     73  10   9 W3        30.06F
BENSON         SUNNY     73   3   6 NE6       30.06F
ORTONVILLE     SUNNY     72  18  13 N6        30.07F
MADISON        SUNNY     72   7   8 N8        30.07F
WILLMAR        FAIR      73  27  17 W5        30.06F
$$
MNZ033>034-036-042>043-049>051-058-059-172200-
   Central Minnesota

CITY           SKY/WX    TMP DP  RH WIND       PRES   REMARKS
ST CLOUD       SUNNY     71  24  17 NW6G17    30.03F
SAUK CENTRE    FAIR      71  24  17 NW8G16    30.05F
PAYNESVILLE    SUNNY     70  26  19 S8        30.05F
AITKIN         SUNNY     75  -4   4 SW10      30.00F
PINE RIVER     SUNNY     72  32  23 NW10      30.05S
BRAINERD       SUNNY     71  23  16 NW10G21   30.03F
STAPLES        SUNNY     72  19  14 NW18      30.04F
LONG PRAIRIE   FAIR      70  23  17 W8        30.05F
LITTLE FALLS   SUNNY     70  21  16 NW5       30.04F
LITCHFIELD     SUNNY     73  27  17 W7        30.05F
BUFFALO        SUNNY     72  28  19 W8        30.04F
MAPLE LAKE     SUNNY     73  32  22 NW8       30.05F
$$
MNZ037-044-045-052-053-172200-
   East Central Minnesota

CITY           SKY/WX    TMP DP  RH WIND       PRES   REMARKS
PRINCETON      SUNNY     73  28  19 W10       30.03F
MORA           SUNNY     70  21  16 W8        30.03F
CAMBRIDGE      SUNNY     73  46  38 W7        30.01S
RUSH CITY      SUNNY     71  27  19 W6        30.02F
MOOSE LAKE     SUNNY     72  30  21 W6G21     29.99S
HINCKLEY       FAIR      72  27  18 SW9G16    30.01F
CLOQUET        SUNNY     72  12  10 W13G22    29.99F
MCGREGOR       SUNNY     70  21  16 W10G16    30.01F
$$
MNZ071>073-080-081-089-090-097-098-172200-
   Southwest Minnesota

CITY           SKY/WX    TMP DP  RH WIND       PRES   REMARKS
MONTEVIDEO     SUNNY     75  25  15 N7        30.06F
GRANITE FALLS  SUNNY     74  22  14 CALM      30.06F
CANBY          SUNNY     72  14  11 N6        30.08F
MARSHALL       SUNNY     73  21  14 NW13G18   30.05F
REDWOOD FALLS  SUNNY     75  30  19 NW10G17   30.03F
OLIVIA         SUNNY     72  32  23 N3        30.04F
PIPESTONE      SUNNY     73  34  23 NE5       30.06F
WINDOM         SUNNY     75  36  23 CALM      30.05F
WORTHINGTON    PTSUNNY   73  43  33 NW7       30.05F
JACKSON        MOSUNNY   73  36  25 NW6       30.05F
TRACY          SUNNY     74  31  19 N6        30.05F
SLAYTON        SUNNY     73  34  24 W6        30.07F
$$
MNZ065>067-074>077-082>085-091>093-172200-
   South Central Minnesota

CITY           SKY/WX    TMP DP  RH WIND       PRES   REMARKS
MANKATO        SUNNY     73  41  31 NE3       30.03F
NEW ULM        SUNNY     73  36  25 N10       30.03F
ST JAMES       SUNNY     77  34  20 N8G16     30.04F
FAIRMONT       SUNNY     75  41  29 NW6       30.03F
GLENCOE        SUNNY     73  38  28 W7        30.03F
FARIBAULT      SUNNY     75  43  31 NW3       30.03F
OWATONNA       SUNNY     75  41  29 NW7       30.02F
ALBERT LEA     MOSUNNY   73  43  33 CALM      30.03F
$$
MNZ078>079-086>088-094>096-172200-
   Southeast Minnesota

CITY           SKY/WX    TMP DP  RH WIND       PRES   REMARKS
ROCHESTER      PTSUNNY   75  45  34 N13       30.03F
RED WING       SUNNY     77  39  25 W7        30.00F
STANTON        SUNNY     75  42  30 W8        30.00F
DODGE CENTER   MOSUNNY   73  45  35 W8        30.03F
WINONA         MOSUNNY   77  45  31 NE8       30.00F
AUSTIN         SUNNY     73  43  33 CALM      30.03F
PRESTON        PTSUNNY   73  43  33 N3        30.03F
$$
ABBREVIATIONS USED IN REMARKS
   TC - TEMPERATURES IN CELSIUS
  WCI - WIND CHILL INDEX
   HX - HEAT INDEX
  VSB - VISIBILITY
$$



USA.gov is the U.S. government's official web portal to all federal, state and local government web resources and services.